Content
SEND FEEDBACK

Daily
Averages
Monthly
Summary
United States of America

DRAKE, NORTH DAKOTA


Home > North America > United States > North Dakota
Elevation: 1630 feet     Latitude: 47 55N     Longitude: 100 22W

WEATHER
 
SELECT A DAY
Number of Records: 77,264;   Date Range: 5/16/11 - 8/29/14
 
SHARE

PRINT THIS DATA

[ ← Previous Day ]
WEATHER ALMANAC - JANUARY 23, 2013
[ Next Day → ]
[ °C ]   °F
Weather ElementAverageHighLow
Temperature-5.5 °F6.8 °F (12:35 am)-11.2 °F (6:55 pm)
Dewpoint-10.7 °F3.2 °F (12:35 am)-18.4 °F (8:35 pm)
Humidity76 %85 % (12:35 am)66 % (1:35 pm)
Barometer30.39 in30.53 in (10:35 pm)30.11 in (12:35 am)
Wind Speed9.1 mph16.1 mph (3:55 am)
Weather ElementAverage
Visibility10 mi
Wind DirectionS (175.2 °)

Weather ElementTotal
Precipitation---
Heating Degree Days67.2 (Base 65)
Averaged from 65 records on January 23, 2013
WEATHER CONDITIONS BREAKOUT
WIND DIRECTION BREAKOUT
WEATHER BY HOUR - JANUARY 23, 2013
[ °C ]   °F
Local TimeTemperatureDewpointHumidityBarometerVisibilityWind DirectionWind SpeedGust SpeedPrecipitationEventsConditions
12:35 AM6.8 °F3.2 °F85 %30.11 in10.0 miNW (320°)15.0 mphClear
12:55 AM6.8 °F3.2 °F85 %30.12 in10.0 miNW (320°)13.8 mphSnowLight Snow
2:35 AM1.4 °F-2.2 °F85 %30.14 in10.0 miNW (320°)12.7 mphClear
2:55 AM1.4 °F-2.2 °F85 %30.15 in10.0 miNW (310°)12.7 mphClear
3:55 AM-0.4 °F-4.0 °F85 %30.17 in10.0 miNW (310°)16.1 mphClear
4:15 AM-0.4 °F-4.0 °F85 %30.17 in10.0 miNW (320°)15.0 mphClear
4:35 AM-0.4 °F-4.0 °F85 %30.18 in10.0 miNW (320°)15.0 mphClear
4:55 AM-0.4 °F-5.8 °F78 %30.19 in10.0 miNW (310°)15.0 mphClear
5:15 AM-2.2 °F-5.8 °F85 %30.20 in10.0 miNW (320°)15.0 mphClear
5:35 AM-2.2 °F-7.6 °F78 %30.21 in10.0 miNW (320°)11.5 mphClear
5:55 AM-2.2 °F-7.6 °F78 %30.22 in10.0 miNW (310°)12.7 mphClear
6:15 AM-2.2 °F-7.6 °F78 %30.23 in10.0 miNW (320°)13.8 mphClear
6:35 AM-4.0 °F-7.6 °F85 %30.25 in10.0 miNW (320°)13.8 mphClear
6:55 AM-4.0 °F-9.4 °F78 %30.26 in10.0 miNW (320°)12.7 mphClear
7:15 AM-4.0 °F-9.4 °F78 %30.27 in10.0 miNW (320°)10.4 mphClear
7:35 AM-5.8 °F-11.2 °F77 %30.28 in10.0 miNW (320°)11.5 mphClear
7:55 AM-7.6 °F-11.2 °F84 %30.29 in10.0 miNW (320°)10.4 mphClear
8:15 AM-7.6 °F-11.2 °F84 %30.30 in10.0 miNW (320°)11.5 mphClear
8:35 AM-7.6 °F-11.2 °F84 %30.31 in10.0 miNW (320°)11.5 mphClear
8:55 AM-7.6 °F-11.2 °F84 %30.33 in10.0 miNNW (330°)12.7 mphClear
9:15 AM-5.8 °F-11.2 °F77 %30.33 in10.0 miNNW (330°)12.7 mphClear
9:35 AM-5.8 °F-11.2 °F77 %30.35 in10.0 miNW (320°)11.5 mphClear
9:55 AM-5.8 °F-11.2 °F77 %30.37 in10.0 miNNW (330°)9.2 mphClear
10:15 AM-5.8 °F-11.2 °F77 %30.39 in10.0 miNW (320°)10.4 mphClear
10:35 AM-5.8 °F-11.2 °F77 %30.41 in10.0 miNNW (330°)10.4 mphClear
10:55 AM-4.0 °F-11.2 °F71 %30.42 in10.0 miNorth (360°)9.2 mphClear
11:15 AM-4.0 °F-11.2 °F71 %30.42 in10.0 miNNE (20°)8.1 mphClear
11:35 AM-4.0 °F-11.2 °F71 %30.43 in10.0 miNorth (10°)9.2 mphClear
11:55 AM-4.0 °F-11.2 °F71 %30.43 in10.0 miNNE (20°)9.2 mphClear
12:15 PM-4.0 °F-11.2 °F71 %30.44 in10.0 miNorth (10°)5.8 mphClear
12:35 PM-4.0 °F0.0 °F30.44 in10.0 miNorth (10°)6.9 mphClear
12:55 PM-4.0 °F0.0 °F30.45 in10.0 miNNE (30°)3.5 mphClear
1:15 PM-4.0 °F0.0 °F30.44 in10.0 miNorth (10°)3.5 mphClear
1:35 PM-2.2 °F-11.2 °F66 %30.43 in10.0 miCalmClear
1:55 PM-4.0 °F-11.2 °F71 %30.44 in10.0 miNNW (330°)3.5 mphClear
2:15 PM-4.0 °F-11.2 °F71 %30.44 in10.0 miCalmClear
2:35 PM-4.0 °F-11.2 °F71 %30.45 in10.0 miNNE (30°)3.5 mphClear
2:55 PM-4.0 °F-11.2 °F71 %30.46 in10.0 miCalmClear
3:15 PM-4.0 °F-11.2 °F71 %30.48 in10.0 miNE (40°)4.6 mphClear
3:35 PM-4.0 °F-11.2 °F71 %30.49 in10.0 miNE (40°)3.5 mphClear
3:55 PM-4.0 °F-11.2 °F71 %30.50 in10.0 miCalmClear
4:15 PM-4.0 °F-11.2 °F71 %30.51 in10.0 miNE (50°)4.6 mphClear
4:35 PM-4.0 °F-11.2 °F71 %30.50 in10.0 miENE (60°)5.8 mphClear
4:55 PM-5.8 °F0.0 °F30.51 in10.0 miENE (70°)6.9 mphClear
5:15 PM-7.6 °F-13.0 °F77 %30.51 in10.0 miEast (80°)6.9 mphClear
5:35 PM-9.4 °F-14.8 °F77 %30.51 in10.0 miEast (80°)6.9 mphClear
5:55 PM-9.4 °F-14.8 °F77 %30.52 in10.0 miEast (90°)8.1 mphClear
6:15 PM-9.4 °F-16.6 °F71 %30.51 in10.0 miEast (90°)8.1 mphClear
6:35 PM-9.4 °F-16.6 °F71 %30.52 in10.0 miEast (90°)8.1 mphClear
6:55 PM-11.2 °F-16.6 °F77 %30.51 in10.0 miEast (90°)8.1 mphClear
7:15 PM-11.2 °F-16.6 °F77 %30.50 in10.0 miEast (90°)9.2 mphClear
7:35 PM-11.2 °F-16.6 °F77 %30.50 in10.0 miESE (110°)6.9 mphClear
7:55 PM-11.2 °F-16.6 °F77 %30.50 in10.0 miESE (110°)8.1 mphClear
8:15 PM-11.2 °F-16.6 °F77 %30.50 in10.0 miEast (100°)8.1 mphClear
8:35 PM-11.2 °F-18.4 °F70 %30.51 in10.0 miESE (110°)9.2 mphClear
8:55 PM-11.2 °F-18.4 °F70 %30.52 in10.0 miESE (110°)8.1 mphClear
9:15 PM-11.2 °F-18.4 °F70 %30.52 in10.0 miSE (130°)8.1 mphClear
9:35 PM-11.2 °F-16.6 °F77 %30.52 in10.0 miESE (120°)9.2 mphPartly Cloudy
9:55 PM-9.4 °F-16.6 °F71 %30.52 in10.0 miSE (130°)9.2 mphClear
10:15 PM-9.4 °F-16.6 °F71 %30.52 in10.0 miSE (130°)9.2 mphClear
10:35 PM-9.4 °F-16.6 °F71 %30.53 in10.0 miSE (140°)8.1 mphClear
10:55 PM-9.4 °F-16.6 °F71 %30.51 in10.0 miESE (120°)15.0 mphClear
11:15 PM-9.4 °F-16.6 °F71 %30.51 in10.0 miSE (140°)9.2 mphClear
11:35 PM-9.4 °F-16.6 °F71 %30.50 in10.0 miESE (120°)12.7 mphClear
11:55 PM-9.4 °F-16.6 °F71 %30.50 in10.0 miESE (120°)11.5 mphClear
Hourly data recorded from K5H4, located miles away from Drake, North Dakota







STORIES FROM OUR PARTNERS